Theta_e
309 312 315 316 314 312 311 311 312 313 314 316 317 321 325 324 324 323 314 316 318 317 321 323 320 318 317 316 314 316 317 316 316 316 316 318 318 318 318 316 317 317 317 318 318 318 318 317 318 318 317 317 315 315 316 314 315 318 316 318 323 325 325 322 321 325 324 323 324 322 322 323 321 322 325 323 323 322 319 321 325 327 333 339 342 346 350
309 311 315 316 315 312 311 311 312 313 316 318 318 322 324 322 324 323 316 316 318 319 320 321 321 319 315 314 314 314 315 315 316 316 316 317 317 318 318 316 317 318 317 318 318 318 319 319 318 318 319 317 315 315 315 314 315 314 314 318 321 323 324 322 321 325 326 325 325 322 321 321 320 321 323 323 322 324 327 327 329 332 333 337 344 349 351
309 311 314 316 315 312 311 311 312 314 317 319 319 323 324 323 326 325 317 316 317 317 317 317 319 318 316 316 315 314 314 314 314 315 315 316 317 318 318 317 317 317 317 318 318 317 318 319 319 320 319 318 315 314 314 315 313 312 319 325 323 322 325 326 324 325 327 327 326 324 323 322 320 321 322 322 322 323 326 325 329 339 342 338 340 346 350
309 311 314 317 315 313 312 311 311 314 317 319 320 322 325 326 329 326 320 319 317 317 316 315 316 318 319 320 317 315 315 313 313 313 314 316 316 317 318 317 316 317 317 318 318 317 318 319 320 321 321 319 315 314 314 314 314 320 329 330 324 322 326 330 331 329 328 327 327 328 325 319 317 318 319 321 323 323 325 327 330 341 347 343 341 343 346
309 310 314 316 316 313 312 311 311 314 317 320 322 324 328 329 328 323 321 323 321 319 317 315 316 317 319 319 316 315 316 315 314 314 314 315 316 317 318 316 317 319 319 318 319 318 318 318 320 321 321 320 317 315 314 313 319 329 330 322 321 324 325 327 329 327 326 327 326 324 321 317 316 317 318 319 322 322 323 324 328 338 345 345 346 343 341
309 310 314 316 316 314 312 312 311 313 316 321 326 330 329 326 324 318 318 321 321 318 316 316 316 315 317 318 314 314 316 315 315 315 315 315 315 319 321 317 317 319 320 324 325 323 321 323 323 323 324 323 319 317 316 314 319 324 320 317 321 322 321 322 322 321 323 324 324 323 320 319 318 318 318 318 320 322 319 319 326 339 343 344 348 346 344
309 310 313 316 316 314 313 312 312 313 314 322 330 331 325 324 324 321 320 321 319 316 315 316 316 316 320 321 316 315 316 315 315 315 316 316 316 319 321 319 319 319 321 328 331 326 325 328 328 326 325 324 323 322 321 319 319 318 316 319 321 319 322 324 319 318 319 320 322 322 320 319 318 318 320 319 319 320 318 322 334 344 343 344 349 349 347
309 309 312 315 317 315 313 313 312 314 316 323 330 327 322 324 327 326 327 325 320 315 315 318 320 320 324 324 318 315 315 314 314 314 316 319 318 318 318 318 319 320 322 326 327 324 326 329 328 325 324 324 324 324 323 321 321 321 318 318 320 320 323 324 319 319 317 316 319 321 320 319 317 316 319 319 319 319 319 325 336 344 344 344 347 348 348
309 309 311 314 317 316 314 314 313 315 319 326 330 326 320 323 325 327 332 331 322 317 317 320 324 322 322 322 318 315 315 313 313 313 314 318 319 317 316 317 318 319 320 321 320 319 322 324 322 320 320 321 322 324 323 320 321 325 322 319 320 320 321 322 320 319 316 315 317 318 318 318 315 315 317 317 318 319 318 323 332 339 342 343 343 344 346
309 308 311 313 316 317 315 315 315 317 321 325 329 328 322 322 325 327 333 334 327 321 319 321 322 320 319 318 317 316 315 315 317 318 316 314 316 316 316 319 321 322 321 320 317 315 315 316 316 315 316 316 317 319 320 316 318 324 325 322 321 321 323 325 322 318 317 315 314 316 317 317 316 316 318 319 319 319 319 322 330 336 342 344 342 342 343
309 308 310 312 315 317 316 316 315 317 319 320 323 328 324 321 326 329 333 335 330 323 321 321 320 319 316 315 315 316 316 316 320 323 319 314 314 316 315 318 322 324 322 318 315 313 313 313 313 314 314 314 314 315 316 315 317 321 321 321 324 324 323 325 324 320 318 317 317 320 318 316 318 319 319 319 319 322 324 326 330 335 340 343 342 342 342
309 308 310 311 314 316 316 316 315 315 317 318 322 327 324 321 327 332 334 335 332 326 323 320 319 318 315 314 316 316 316 317 318 319 317 314 315 317 316 317 322 323 318 314 314 314 313 313 313 312 313 315 315 315 314 315 317 320 319 320 326 328 325 324 323 321 320 321 320 319 317 317 319 319 319 320 321 324 328 330 333 337 338 339 341 341 339
310 308 310 310 313 315 316 317 316 315 316 318 323 327 323 320 327 332 334 335 335 329 323 318 316 317 316 316 316 315 315 316 316 316 316 316 316 316 316 316 317 318 315 314 314 315 318 321 320 317 317 317 317 315 316 317 317 318 318 319 323 327 327 326 325 321 321 321 318 318 320 321 320 320 321 321 323 326 330 330 332 335 336 336 338 338 335
312 308 309 310 311 314 315 316 316 315 315 318 324 328 323 320 327 332 332 335 335 331 324 321 320 318 317 317 315 316 317 316 317 317 316 317 317 316 315 314 314 315 315 316 317 318 321 323 321 319 318 318 318 319 319 320 319 317 319 320 322 326 328 330 330 325 319 318 317 321 325 322 322 326 325 324 325 327 331 332 331 333 335 334 336 337 335
314 307 309 310 310 312 314 315 316 315 314 316 322 328 325 320 324 329 330 334 336 331 324 323 322 319 319 317 315 319 321 320 321 320 316 317 318 316 315 315 315 314 313 317 322 323 322 322 321 320 319 319 321 322 321 321 319 317 319 320 321 325 327 329 331 328 323 319 319 321 322 321 325 327 325 323 321 322 331 335 330 331 335 333 334 336 335
315 307 308 310 310 311 313 314 316 315 314 315 320 326 326 321 321 325 329 334 335 332 324 321 320 319 319 319 316 319 324 326 326 324 321 321 320 316 315 316 316 315 315 321 327 326 324 324 322 319 319 320 322 323 324 323 320 318 319 319 320 324 325 326 328 329 328 323 319 319 323 328 331 328 322 320 317 318 330 332 327 331 335 333 333 334 333
316 308 307 310 310 310 311 313 315 315 315 315 317 322 326 323 320 323 329 332 333 330 324 317 317 319 322 324 322 321 324 326 326 325 326 326 322 318 317 316 316 315 317 323 327 325 324 324 320 317 320 323 323 322 323 323 321 320 321 321 321 324 325 324 324 325 327 325 321 321 328 334 334 326 319 318 319 321 323 320 322 332 332 327 330 333 331
317 308 306 309 310 310 311 312 314 315 315 315 315 319 326 326 322 322 327 330 329 328 324 317 317 319 323 326 325 323 322 323 324 327 328 327 324 322 319 318 319 319 319 323 326 325 324 323 321 320 324 326 324 321 320 321 320 321 323 324 325 325 324 324 322 321 324 323 321 324 329 330 328 325 321 320 323 324 321 322 330 335 328 323 326 329 328
317 308 306 308 309 310 311 311 312 314 315 315 315 317 324 327 324 322 325 328 327 325 324 320 318 318 318 320 322 321 319 320 323 324 325 327 327 322 319 320 321 321 323 324 323 323 324 323 322 322 325 328 326 321 321 321 320 320 323 326 327 325 322 323 321 319 320 320 320 326 331 328 325 325 324 326 328 327 326 331 335 331 325 324 324 324 325
318 309 306 307 309 310 310 311 312 313 314 316 315 316 322 327 327 325 325 326 325 323 323 321 319 319 317 318 320 321 321 323 325 325 325 327 327 322 323 326 323 322 326 327 324 323 326 326 325 322 323 326 326 323 324 324 321 319 320 323 326 327 323 321 320 319 319 318 319 327 331 329 326 327 328 331 333 332 332 333 331 327 326 326 324 324 325
317 309 305 307 308 309 310 311 311 312 314 316 315 316 323 327 327 325 324 324 325 325 324 321 321 320 318 316 317 318 319 322 324 325 326 328 327 325 325 327 326 324 326 327 324 325 327 327 325 323 322 324 325 325 326 325 324 323 321 321 325 328 324 322 322 321 320 320 322 327 330 328 328 330 331 331 332 334 334 331 328 328 328 328 329 327 325
317 309 305 307 308 309 310 311 311 312 313 314 314 317 322 325 324 322 321 323 326 326 323 322 322 321 319 317 316 316 317 317 319 322 323 326 330 328 325 326 327 324 323 325 325 326 327 326 325 325 325 325 326 327 326 324 324 324 322 322 324 327 327 328 327 326 326 326 328 330 330 328 328 330 330 330 329 331 332 330 329 329 326 326 328 327 326
318 310 306 306 307 308 310 310 311 311 312 313 314 315 319 323 324 322 320 322 326 326 324 323 323 322 321 320 317 316 317 316 317 318 318 321 327 329 326 326 324 321 324 328 328 327 327 327 326 326 326 325 325 325 325 324 323 323 323 322 321 325 331 331 329 328 328 328 329 330 328 325 325 327 329 330 327 326 328 329 329 328 326 324 325 324 325
318 311 306 306 307 308 310 310 311 311 311 312 313 314 317 323 325 322 320 322 326 328 327 325 325 324 322 321 319 318 316 316 316 316 316 319 322 324 327 326 323 323 328 329 326 326 327 326 324 324 324 325 326 324 324 325 324 325 325 323 320 324 328 326 325 326 325 324 327 330 328 325 324 324 326 328 326 326 328 329 328 326 325 324 324 323 322
318 311 306 306 306 308 310 310 310 311 311 311 312 314 319 324 324 321 322 324 327 328 328 327 325 323 321 320 319 319 318 317 317 316 317 318 318 319 322 323 322 324 328 327 326 330 329 326 325 325 324 327 328 326 325 327 327 327 327 326 325 326 326 325 325 326 325 324 326 327 326 325 325 324 324 325 325 326 327 328 327 325 324 322 321 321 321
318 311 306 306 306 307 309 310 310 311 311 310 310 312 317 321 322 323 323 324 325 326 327 326 325 323 321 321 321 320 319 318 318 318 318 318 318 317 318 320 321 323 325 325 326 329 328 326 326 325 325 328 328 326 326 328 328 327 327 326 326 325 325 327 328 327 327 328 329 329 328 326 325 324 324 325 326 326 326 326 325 323 323 323 320 319 318
316 310 306 306 306 307 309 310 310 311 311 311 311 311 313 317 322 324 322 322 326 328 326 325 326 323 321 321 321 321 321 319 319 320 319 319 319 318 317 320 322 323 325 326 326 326 326 326 325 324 324 326 327 325 325 326 327 327 326 326 325 325 326 328 327 326 327 329 329 331 331 328 325 325 326 327 327 326 325 325 323 322 322 324 322 319 316
315 309 306 306 306 307 309 310 310 311 311 311 311 312 314 319 323 323 320 320 324 327 326 325 325 324 322 322 321 320 321 320 319 320 319 319 320 319 319 322 323 323 324 326 326 326 325 325 326 326 326 325 326 326 325 325 325 325 325 326 326 327 328 327 327 328 329 328 327 328 329 328 327 326 326 327 326 325 325 325 324 323 321 322 323 321 318
314 309 307 306 306 307 309 310 310 311 311 311 312 315 320 322 323 322 321 319 322 325 326 325 325 323 324 324 322 321 322 320 319 320 319 320 320 320 320 322 324 324 326 328 329 330 329 327 326 326 325 325 326 326 325 325 325 324 326 328 327 327 328 328 327 328 328 327 327 327 327 327 327 326 326 326 324 323 325 326 326 324 320 318 321 322 320
313 309 307 306 306 308 309 310 310 310 311 314 317 322 325 325 323 320 319 320 322 324 325 325 324 323 322 322 322 322 322 320 320 321 321 321 322 321 321 323 325 327 329 331 331 330 329 327 326 325 323 323 325 325 324 324 324 323 326 329 327 326 327 328 327 327 327 326 325 325 325 325 324 323 325 325 322 322 325 325 325 324 320 318 320 320 318
313 309 307 306 307 308 309 310 310 310 312 317 321 325 327 327 323 319 316 317 320 323 324 325 324 323 323 323 323 323 323 321 321 321 321 322 322 321 321 324 326 327 330 332 330 327 327 328 328 326 324 323 325 325 324 324 324 323 324 328 327 325 326 326 326 325 325 324 324 323 323 324 323 322 323 323 321 322 325 325 323 322 322 320 319 318 316
312 309 307 306 307 309 310 311 310 310 313 317 320 322 321 321 320 318 315 315 318 322 325 325 324 324 325 325 323 322 323 322 321 323 324 324 325 325 324 325 328 328 328 330 330 327 326 327 327 326 324 323 324 325 324 324 324 323 323 326 327 325 324 325 324 325 325 324 324 323 323 324 324 323 323 322 320 320 322 323 321 319 319 320 319 318 317
311 308 306 307 308 310 310 311 311 311 312 315 317 318 317 317 318 317 316 316 320 323 325 324 324 325 325 324 324 324 324 323 324 326 328 327 326 327 326 327 330 331 329 328 328 326 324 324 326 326 324 323 323 324 324 323 323 322 322 323 324 323 323 323 323 323 324 323 323 324 323 323 323 323 321 320 319 319 320 321 321 319 319 321 323 321 318
309 306 306 308 310 311 311 312 313 314 315 317 319 320 318 318 318 317 316 319 322 324 323 323 324 326 325 324 324 325 324 323 324 327 328 327 326 327 328 328 329 331 329 326 326 327 327 327 327 325 324 323 323 323 323 322 322 322 321 321 321 321 321 321 321 321 321 322 322 323 322 322 322 322 322 321 320 319 319 320 321 322 322 324 325 322 319
307 306 307 310 311 311 311 313 315 317 319 321 322 321 319 318 317 316 317 321 323 324 325 325 326 327 326 326 327 326 323 322 324 325 326 327 327 327 327 326 326 327 326 324 325 327 328 327 325 325 323 322 322 322 323 323 322 321 320 321 321 320 320 321 321 321 321 321 322 322 322 321 321 322 323 322 321 320 320 320 321 323 324 324 323 320 319
306 306 308 311 312 312 314 316 316 318 321 323 322 320 318 316 317 317 318 320 322 324 326 328 328 328 327 326 327 326 321 321 324 325 324 326 327 326 325 325 326 326 325 323 324 326 326 324 324 324 323 321 321 323 323 322 321 321 319 320 320 320 320 320 320 320 320 320 321 322 321 321 321 321 322 322 322 321 321 321 321 322 322 322 322 320 319
306 308 311 313 315 316 319 321 320 320 321 320 318 317 316 317 319 320 320 320 320 321 323 325 327 327 326 325 326 324 321 322 325 326 323 324 326 325 325 325 325 324 323 324 325 326 325 323 323 324 323 322 322 322 320 320 320 320 319 319 319 319 319 319 319 319 319 319 320 320 319 318 319 320 320 321 321 321 321 321 320 320 320 320 320 319 317
307 309 312 315 319 322 324 324 321 319 318 317 317 319 320 320 322 323 323 322 321 321 321 322 324 326 326 326 325 323 323 324 325 325 326 326 324 323 325 326 324 323 323 323 323 323 323 323 323 323 323 322 320 319 318 318 319 318 318 318 318 318 318 318 318 318 318 319 319 319 318 318 318 319 318 319 319 320 320 319 318 318 318 317 317 316 314
310 312 314 318 321 323 324 323 320 318 318 319 320 322 323 323 324 325 325 324 324 324 323 323 325 327 327 326 325 323 323 324 324 324 326 326 323 322 324 324 323 322 322 321 321 322 322 323 323 323 321 320 319 318 318 318 318 318 319 318 317 317 317 318 317 318 318 318 318 318 318 318 318 318 317 318 318 318 318 316 315 314 314 314 313 313 312
313 317 320 322 323 323 321 319 317 318 320 322 323 323 324 325 325 326 326 326 326 326 325 324 325 326 325 325 326 325 322 322 324 325 325 325 323 322 322 322 322 321 321 320 320 320 321 321 321 321 320 320 319 318 318 317 318 318 318 317 316 315 315 315 315 316 316 317 317 317 316 317 317 317 317 317 317 318 317 315 313 312 312 312 312 311 311
317 320 322 322 322 322 320 319 319 320 323 324 324 325 325 326 325 325 326 327 327 327 326 325 326 327 326 324 325 325 324 323 324 324 324 324 324 322 321 322 322 320 320 321 321 320 320 321 320 319 319 319 318 317 316 317 317 317 317 316 315 315 314 314 314 313 314 316 317 316 316 316 316 316 316 316 316 316 315 313 312 312 311 311 311 311 310
318 318 318 318 319 320 320 320 322 323 323 323 325 325 324 323 325 328 328 327 326 326 326 325 325 327 326 323 323 326 326 324 323 323 323 323 323 321 321 321 321 320 321 322 321 318 318 320 319 318 318 318 316 316 316 317 317 317 317 316 315 315 314 314 314 313 313 314 315 316 316 316 315 315 316 316 315 314 313 312 312 311 311 311 310 310 309
316 316 316 317 319 321 322 321 322 323 323 322 324 326 324 321 324 329 329 327 325 325 326 326 325 324 323 322 323 325 325 323 323 324 324 322 321 321 322 322 321 321 322 320 317 317 318 318 318 318 319 318 316 316 317 316 316 316 315 314 313 313 313 313 313 313 312 312 313 314 315 315 315 314 315 314 314 313 312 311 311 310 310 310 310 309 308
317 319 319 320 321 321 322 322 323 326 327 324 324 325 325 325 328 330 330 327 326 325 324 325 326 324 322 322 324 325 325 325 324 323 322 322 321 321 321 321 321 321 319 316 314 316 317 316 316 317 318 317 315 315 316 315 315 315 314 313 311 311 311 311 312 312 312 311 312 314 315 315 314 314 314 313 313 313 312 312 311 311 310 310 309 308 308
319 321 321 322 322 321 320 320 322 325 327 325 322 321 323 327 329 329 328 325 325 325 324 324 325 325 324 324 324 324 325 325 324 322 322 322 322 320 319 318 317 317 315 313 312 314 315 314 314 316 316 315 314 314 315 314 314 313 313 312 311 311 311 311 311 312 312 311 311 312 313 314 314 313 313 312 312 312 312 312 311 311 310 309 308 307 307
321 322 320 320 320 319 318 318 319 320 322 322 322 323 325 327 327 327 325 324 325 327 326 325 325 324 325 325 324 324 325 325 323 322 322 321 320 319 318 316 314 313 312 311 312 314 314 314 314 315 314 313 313 313 313 313 313 312 312 312 311 311 310 310 310 310 310 310 310 311 313 313 313 313 312 311 311 311 312 311 310 310 309 308 307 307 306
321 322 319 319 320 319 317 317 317 316 319 322 323 324 326 326 325 325 325 324 325 326 327 327 327 326 324 324 323 323 324 323 321 320 320 318 316 316 315 313 312 312 312 312 314 314 314 313 313 313 313 313 312 312 312 312 312 311 311 311 311 311 310 310 310 310 310 309 309 311 312 313 312 312 312 311 311 311 311 310 309 309 308 307 307 306 306
321 320 319 320 320 319 318 318 317 319 325 326 324 323 325 326 326 326 325 324 324 325 325 327 328 326 323 322 321 320 319 319 318 317 316 315 314 313 313 312 312 313 313 313 313 313 311 311 312 312 312 312 311 311 311 311 311 310 310 310 310 310 310 310 309 309 309 309 309 310 311 312 312 311 311 312 312 311 310 310 309 308 307 307 306 306 305
320 319 319 320 320 317 317 318 319 325 330 329 325 323 325 326 327 327 325 324 326 327 326 326 327 326 323 320 318 316 316 316 315 313 313 313 313 312 312 312 314 314 313 312 311 311 310 311 312 312 312 311 311 310 310 310 310 310 309 309 310 310 310 310 310 309 309 309 310 309 309 310 310 309 309 310 311 310 310 309 308 307 307 306 306 306 305
318 318 319 319 319 318 318 318 320 325 328 327 325 325 326 326 327 328 326 325 329 330 327 325 326 325 322 318 314 314 315 315 314 312 312 312 312 312 313 314 314 313 311 310 311 311 311 311 312 311 311 311 311 310 310 310 309 310 310 309 310 310 309 309 309 308 308 309 309 309 309 310 310 309 309 309 309 309 309 308 307 307 307 306 306 306 305
317 318 318 318 318 318 318 318 321 325 326 325 325 327 327 327 327 327 326 326 328 328 324 323 324 322 318 315 313 313 313 313 313 313 313 312 312 313 314 314 312 311 310 311 311 311 311 311 312 311 311 311 311 310 310 310 310 310 310 310 309 309 309 308 308 308 308 308 308 308 310 310 309 309 309 309 308 308 309 308 307 307 306 306 305 305 305
315 316 317 317 317 317 317 319 324 326 325 324 325 326 326 328 329 328 326 326 326 324 323 322 322 318 315 314 314 315 314 313 314 314 313 312 312 314 314 312 311 311 311 311 311 311 311 312 312 311 311 311 310 310 310 309 309 310 310 310 309 309 309 309 309 309 308 308 308 308 309 309 308 307 308 309 308 308 309 308 307 306 306 306 305 305 305
Wind_Speed
25 25 25 27 28 28 29 30 31 33 33 29 24 14 3 1 6 9 2 4 6 4 3 4 1 3 1 2 1 2 3 5 6 5 4 3 3 2 1 3 2 1 2 3 3 4 4 4 4 4 4 4 5 6 8 9 7 5 4 5 5 3 2 2 5 5 6 14 11 9 8 9 7 3 3 3 2 3 3 2 2 0 2 5 5 4 4
25 24 24 26 28 28 29 29 30 31 30 26 18 8 3 3 6 7 3 8 6 4 1 2 2 3 0 1 4 3 4 6 7 6 6 4 3 3 2 3 1 1 2 3 3 1 2 2 2 5 4 2 4 6 7 7 5 3 2 3 3 3 3 2 3 4 5 8 4 4 3 3 2 4 5 6 6 1 3 2 2 3 1 4 7 4 2
24 24 23 25 27 28 28 28 29 30 29 24 13 3 4 4 3 3 5 10 7 1 2 2 2 2 1 2 2 3 4 3 3 5 6 4 3 3 3 1 1 1 2 4 5 2 1 2 3 3 3 1 4 5 6 5 4 3 3 5 4 2 2 2 1 2 3 3 2 1 2 3 3 4 7 10 7 3 3 4 5 4 2 1 6 6 4
23 23 23 25 27 28 28 28 28 29 29 25 11 4 3 2 2 3 2 4 3 1 2 2 3 2 2 3 4 1 4 4 3 3 4 4 5 4 2 1 0 2 1 2 5 3 3 3 1 2 3 2 3 3 4 3 4 6 8 7 4 1 2 2 3 2 2 4 5 5 3 4 4 4 10 10 3 8 5 4 4 3 1 3 4 10 10
23 22 22 24 26 28 28 28 28 28 28 25 12 3 3 2 3 2 2 3 3 3 3 4 4 4 3 2 4 4 3 4 4 3 3 2 4 4 3 4 1 2 3 1 3 2 4 5 3 3 2 2 3 2 2 2 4 8 7 3 2 2 2 3 1 2 7 8 8 7 5 7 6 5 11 11 1 6 4 5 5 6 5 5 4 11 13
22 22 21 23 25 27 28 28 28 27 26 22 10 2 2 3 3 4 3 2 2 4 4 4 5 6 5 1 3 4 6 4 4 4 4 4 3 3 1 3 3 4 4 4 3 1 2 3 1 2 2 2 2 2 3 2 5 7 5 5 3 1 2 4 5 5 9 9 10 8 5 6 8 8 11 11 2 5 4 4 5 6 6 6 8 10 11
21 21 21 22 24 25 27 28 29 28 25 18 6 1 3 4 3 5 6 4 3 3 3 1 5 5 3 2 4 5 6 6 5 4 5 4 3 3 3 5 8 7 7 5 3 2 3 2 3 4 4 3 3 1 1 4 6 5 4 4 2 1 2 4 7 7 7 9 12 9 6 6 8 9 10 11 9 8 8 6 9 12 10 11 12 11 8
21 21 20 20 22 24 26 27 28 28 25 16 7 4 6 5 2 5 7 6 4 3 4 2 3 3 1 1 3 3 5 7 5 5 6 4 2 3 4 6 7 7 7 6 4 4 3 3 1 2 4 2 2 2 2 3 5 5 4 3 1 2 3 5 5 4 7 11 11 6 5 8 8 9 10 9 9 9 8 6 12 14 10 11 14 12 8
20 20 19 19 20 22 24 25 27 27 24 15 7 7 10 9 8 6 4 4 3 2 3 2 2 3 2 2 3 3 5 4 2 3 6 5 5 6 5 5 4 5 7 6 6 5 2 2 1 2 3 2 1 1 1 2 4 4 3 2 3 2 3 5 4 2 4 9 7 3 2 8 7 8 11 7 3 4 4 4 8 11 11 11 11 8 6
19 20 19 18 19 20 22 23 24 24 24 18 7 7 13 13 11 9 4 3 4 3 4 1 4 2 1 2 3 4 5 5 4 3 3 3 6 7 6 5 4 3 5 6 6 6 6 5 4 3 3 3 1 1 0 1 1 2 3 2 2 2 2 3 4 1 4 7 9 4 3 4 4 4 9 8 1 1 4 6 6 12 13 9 6 6 7
19 19 18 16 17 19 20 21 22 22 23 21 8 5 12 12 7 6 4 2 5 5 1 4 3 1 1 2 3 4 6 6 4 1 0 2 3 4 4 5 3 3 4 4 4 4 4 4 4 4 3 5 3 1 2 2 1 2 2 2 2 2 2 2 3 2 3 6 10 5 2 2 3 3 9 13 6 5 8 9 8 10 11 8 8 8 8
18 18 18 16 15 17 18 18 20 19 20 20 10 6 13 16 7 4 3 3 6 6 2 4 2 1 2 3 4 6 6 5 3 3 4 4 4 5 5 5 3 3 2 1 3 3 4 4 3 3 3 2 3 4 4 0 3 2 1 2 3 3 2 1 2 1 2 6 7 3 2 1 2 5 8 10 7 9 14 14 12 11 14 14 13 9 8
17 17 17 15 13 14 16 17 18 17 16 18 13 8 14 18 8 2 3 2 4 6 3 3 3 4 5 5 6 6 5 5 4 4 4 3 3 4 5 5 4 3 1 0 1 3 4 2 0 2 3 2 2 5 6 1 1 1 0 2 3 3 2 1 3 1 1 3 2 1 1 1 4 7 7 7 6 6 11 12 10 10 13 14 13 10 9
16 17 16 15 13 13 14 15 16 16 14 15 14 10 14 19 10 2 3 2 4 6 4 3 4 5 6 5 4 3 4 5 3 2 3 1 2 6 5 4 4 4 3 2 2 2 1 1 1 1 2 0 0 2 3 2 0 1 2 2 2 3 2 2 2 1 0 1 1 1 1 3 3 3 3 5 4 4 5 7 6 7 10 12 12 11 11
15 16 16 15 13 12 12 13 15 15 14 14 13 10 13 19 13 5 3 2 4 5 3 4 4 5 4 2 2 1 1 3 2 1 2 2 2 6 5 4 6 5 3 1 1 2 1 1 1 2 2 1 1 0 1 1 2 2 1 1 1 2 2 2 1 1 1 1 1 1 1 1 1 1 3 5 5 5 5 5 4 5 8 10 11 11 12
14 15 15 15 13 11 11 11 13 14 14 13 12 10 11 16 17 10 4 2 2 3 3 4 3 2 2 0 2 2 1 1 1 1 2 0 0 4 4 4 5 4 4 1 1 2 2 1 2 2 1 1 2 1 1 1 1 3 4 2 0 0 1 1 1 2 3 2 1 1 1 1 2 2 5 7 7 6 6 6 3 3 4 8 8 9 9
13 13 15 15 13 11 10 10 11 12 13 13 13 11 9 13 19 14 5 2 3 3 2 4 4 3 2 1 1 1 0 1 2 1 1 1 0 2 3 2 2 2 3 2 1 2 2 2 2 1 1 2 1 2 1 2 1 1 4 3 1 2 1 1 1 3 3 2 2 1 1 2 2 3 7 7 7 7 6 5 1 4 5 7 5 6 8
11 12 14 14 13 11 10 9 10 10 10 11 13 11 7 11 18 15 5 3 2 2 5 8 5 2 2 1 1 2 2 2 2 1 1 2 1 1 2 2 2 2 3 2 2 2 2 2 1 1 1 2 2 2 1 1 2 2 2 3 1 2 2 2 2 3 3 3 2 0 1 1 2 5 7 7 6 5 5 4 4 3 6 8 8 7 7
10 11 13 14 13 11 9 9 9 9 9 10 11 9 6 9 15 15 7 3 2 2 8 9 5 2 3 3 1 1 2 1 1 1 2 1 1 1 1 1 2 2 0 1 1 2 3 3 0 2 2 0 1 2 2 0 2 2 1 1 1 2 1 3 3 3 3 3 1 0 0 1 3 5 5 6 4 2 2 4 3 2 6 8 9 9 5
9 10 12 13 14 12 10 8 8 8 8 8 9 9 7 6 10 13 9 3 2 4 7 8 10 9 7 5 3 3 2 1 0 2 2 2 2 3 2 2 2 1 1 0 1 1 1 3 2 2 1 1 1 2 1 1 2 3 1 0 2 1 0 1 2 2 2 2 1 1 1 0 3 4 3 4 3 3 4 1 2 4 6 7 8 7 6
9 8 10 13 13 12 11 8 7 7 7 6 8 9 7 6 8 11 9 5 2 2 4 10 15 14 10 8 8 7 5 3 2 3 3 2 1 2 1 1 2 1 1 1 1 0 1 2 2 2 2 0 2 2 2 1 2 4 3 1 1 0 1 1 1 1 0 1 1 2 2 2 5 4 2 1 2 3 3 3 3 4 5 5 5 5 5
8 8 9 11 12 12 11 9 7 7 6 5 6 6 7 8 10 12 12 8 4 5 8 13 16 14 12 10 8 6 7 7 5 5 3 2 0 0 2 2 2 2 1 2 1 1 2 2 2 2 2 1 1 1 1 1 1 2 3 2 1 1 2 2 1 2 0 2 3 3 2 3 6 5 4 4 4 3 4 5 3 3 4 5 5 5 5
8 8 8 10 11 11 11 9 7 6 5 5 4 3 5 9 11 14 14 8 6 8 13 16 14 12 12 11 6 2 4 6 5 3 2 1 2 2 1 1 1 1 2 3 1 1 2 2 2 2 1 1 2 3 3 1 1 1 2 3 3 2 3 3 2 2 2 2 4 4 4 5 7 6 4 5 5 4 5 5 4 4 5 5 5 5 6
8 7 8 10 11 11 10 9 7 5 5 5 4 3 4 7 11 15 13 6 2 4 7 8 6 5 4 1 3 3 3 4 3 1 2 1 2 2 1 2 2 2 3 3 3 2 2 1 1 1 2 2 3 2 3 2 1 3 2 2 3 1 2 1 1 1 2 1 3 5 6 6 8 7 5 5 5 4 5 5 5 5 6 6 6 5 5
7 7 7 9 11 11 10 9 7 5 5 4 4 3 3 5 10 13 9 4 2 3 3 3 2 4 4 2 1 3 3 3 4 2 2 3 3 2 2 2 2 4 3 2 2 2 0 1 1 1 1 1 2 1 2 1 1 3 3 1 1 2 3 2 1 1 1 1 1 2 0 4 7 6 5 5 5 5 6 6 6 6 7 6 6 5 5
6 6 7 8 10 11 10 8 6 5 5 5 4 3 2 3 7 9 7 5 4 2 2 2 2 4 7 6 3 2 2 1 2 3 4 5 6 5 4 2 3 5 2 1 1 2 1 1 1 1 1 1 2 2 1 0 0 2 1 0 1 2 2 2 2 3 3 1 5 8 5 1 4 5 4 5 5 5 6 7 7 7 7 6 6 6 6
6 6 6 8 10 11 10 8 6 5 4 5 4 4 4 2 5 6 6 4 3 1 1 2 3 7 12 11 7 5 3 1 3 6 6 6 6 6 4 1 3 3 1 1 1 1 0 0 1 1 1 1 1 1 1 1 0 1 2 2 1 1 1 1 2 2 2 2 3 4 2 1 3 5 4 3 5 5 6 7 8 8 8 7 7 5 4
6 6 6 8 10 11 9 7 6 4 4 5 4 5 3 2 4 5 5 3 2 1 2 2 4 8 11 11 10 10 6 1 2 5 6 6 5 4 2 1 1 1 1 0 0 0 0 0 1 1 2 1 0 1 2 1 0 2 3 2 2 2 1 1 2 1 1 1 3 3 2 1 2 5 6 5 4 3 2 4 7 9 9 8 8 7 5
6 6 7 8 10 11 9 7 5 4 4 4 4 3 1 4 4 4 3 3 3 2 2 3 4 4 5 6 7 8 6 1 1 5 5 3 2 2 3 3 1 2 1 2 2 1 0 1 1 1 1 1 1 1 1 1 2 2 1 2 3 1 1 2 3 2 1 1 2 3 3 3 3 4 5 5 7 7 5 2 1 4 11 13 9 8 9
5 5 7 9 10 11 8 6 5 4 3 2 3 2 1 3 2 2 2 2 2 3 2 2 2 3 5 6 5 7 7 3 1 2 4 4 4 4 4 3 3 3 2 1 1 1 1 1 2 1 1 1 1 1 1 1 3 2 2 4 2 1 1 1 2 1 1 1 1 2 3 3 4 4 3 2 2 6 6 4 5 4 5 13 12 10 12
5 6 8 9 10 10 7 5 4 3 1 2 3 1 1 1 1 3 4 2 2 3 2 2 3 2 3 4 3 6 8 5 1 1 4 5 5 5 7 5 3 2 2 1 1 1 1 2 2 1 1 1 1 1 1 1 3 3 2 4 1 0 1 1 2 2 2 1 2 3 3 3 3 4 3 3 3 5 4 3 5 10 9 3 11 15 15
6 7 8 10 10 9 6 4 4 5 4 1 1 2 1 0 1 4 4 2 1 2 2 2 3 2 1 1 4 7 10 8 2 1 2 3 3 3 4 3 1 1 3 2 1 0 1 2 3 2 1 1 2 1 2 2 4 4 0 2 1 1 1 1 2 3 4 3 3 2 3 3 2 1 1 3 5 6 5 4 2 5 12 10 2 12 15
6 7 9 10 9 7 5 4 5 5 5 4 4 3 2 2 2 3 1 1 2 4 3 2 2 2 1 1 2 4 6 5 2 1 2 1 1 2 2 2 2 1 2 3 1 1 1 1 2 2 1 1 1 1 3 4 4 3 3 4 4 3 2 2 2 3 4 4 3 1 2 3 3 2 2 4 6 6 6 7 4 1 2 6 5 2 7
6 8 9 9 7 4 4 4 3 4 4 4 3 4 3 2 3 1 2 2 3 4 3 1 3 2 1 1 1 2 4 3 0 2 1 1 2 1 1 1 1 1 1 2 1 1 1 1 2 2 1 0 1 1 3 2 1 4 6 5 4 4 4 2 2 2 3 2 1 2 4 5 4 4 4 5 5 5 6 6 3 2 3 3 2 1 2
7 8 8 7 5 3 4 4 4 4 4 3 3 5 1 4 3 3 5 2 2 3 2 1 2 2 1 2 2 1 3 2 1 1 1 0 1 1 0 1 0 1 1 1 2 1 1 1 2 2 1 1 1 2 2 1 3 4 3 1 1 2 3 2 2 2 3 3 3 4 4 4 4 4 5 5 5 4 4 5 3 4 4 3 3 2 3
7 8 6 3 2 3 4 5 5 4 2 1 2 1 3 4 1 4 4 2 2 3 1 1 2 1 0 1 1 1 2 2 2 1 1 1 0 0 1 1 1 1 1 1 2 2 2 1 1 1 2 2 2 1 0 1 2 2 2 1 1 1 2 3 3 4 4 5 5 5 3 3 4 4 4 5 4 4 4 4 2 5 5 3 2 2 1
7 6 3 0 1 2 3 4 4 3 1 0 1 3 3 1 2 3 4 4 4 4 2 2 2 1 1 1 1 1 1 1 1 1 1 1 1 1 2 1 1 1 1 2 3 2 2 1 1 2 2 2 1 0 1 1 2 2 1 1 2 2 2 3 3 4 5 5 5 5 5 4 4 4 3 4 3 4 4 3 2 5 6 5 5 4 5
5 2 1 0 2 2 2 2 2 2 1 3 2 2 2 3 3 3 4 4 4 4 3 2 2 1 1 1 1 2 1 1 1 1 0 0 1 1 2 1 1 0 1 2 1 2 2 1 2 1 1 1 1 2 2 2 1 0 1 1 1 1 0 1 2 3 4 4 4 4 4 4 4 4 3 3 2 2 1 0 3 5 5 6 8 10 10
0 1 1 2 2 1 1 1 1 2 2 2 2 2 2 3 2 2 2 2 2 2 3 3 3 2 3 2 2 2 2 1 2 1 1 1 1 1 1 1 0 1 2 2 1 1 1 2 2 2 1 1 1 1 0 1 2 2 3 2 1 1 1 1 1 1 0 3 4 4 3 4 4 4 4 1 1 2 2 3 5 8 9 9 11 14 13
2 2 3 2 1 2 2 2 1 1 1 2 3 2 1 2 2 1 1 2 2 2 2 2 2 2 3 3 2 2 3 2 2 2 1 1 1 0 1 1 1 1 2 2 1 1 2 1 2 2 0 0 1 2 1 1 2 2 2 1 2 3 3 3 3 2 2 3 5 5 6 6 5 5 4 2 4 4 4 5 8 10 11 12 13 14 13
2 3 3 3 4 2 1 0 1 2 2 2 2 1 1 1 2 1 1 1 1 1 1 1 1 1 3 3 2 1 3 2 1 2 1 1 0 0 1 1 1 1 2 1 1 2 2 0 2 2 1 0 1 1 1 2 3 3 3 3 3 5 5 5 7 7 4 2 3 4 6 7 6 6 5 5 5 6 6 8 9 11 13 13 13 14 15
4 5 6 9 9 4 3 3 3 3 2 1 1 1 2 2 2 1 1 1 1 0 1 1 1 0 1 2 2 1 1 1 1 1 2 1 0 0 1 1 0 1 2 1 2 2 1 1 2 1 1 0 1 2 1 2 3 4 4 4 5 6 6 5 6 8 8 5 3 3 5 6 6 3 5 7 6 7 10 10 10 12 14 14 15 17 17
5 6 7 7 6 3 3 3 2 1 0 1 1 1 2 2 1 1 0 0 1 1 1 1 1 0 1 1 1 1 1 1 1 1 1 1 0 0 1 1 1 1 2 2 2 1 1 2 1 1 1 1 2 3 3 3 3 3 4 6 7 9 9 9 8 9 10 10 6 4 5 5 4 1 6 8 6 7 11 13 12 13 16 16 17 17 16
3 3 4 4 3 1 1 0 1 1 1 0 1 1 2 2 1 1 1 1 1 2 1 1 2 2 1 1 0 0 1 1 0 1 1 1 0 1 1 1 1 2 2 2 1 1 2 2 2 1 2 3 3 3 3 3 3 3 4 7 9 10 10 10 9 8 9 9 8 6 6 7 5 4 6 8 8 8 11 14 16 16 18 18 17 15 14
2 2 2 1 1 1 1 0 1 0 1 2 3 3 2 2 2 2 2 2 1 1 1 2 2 2 0 1 1 1 1 1 1 1 1 0 1 2 2 2 1 2 2 2 0 3 3 2 1 2 2 1 1 2 2 3 3 4 4 6 7 8 8 8 8 7 7 8 9 7 7 7 6 6 6 8 9 9 9 12 16 18 20 20 17 15 13
3 2 1 0 1 1 0 1 2 2 2 2 2 2 2 1 2 2 2 2 1 1 1 2 2 2 0 1 1 1 1 1 1 2 2 1 1 2 1 1 2 2 2 0 2 3 3 2 1 1 2 3 4 4 4 4 4 5 6 6 7 8 8 9 9 8 9 10 10 8 7 8 8 9 9 9 11 12 10 12 18 21 20 19 17 15 14
3 2 1 1 1 1 2 3 3 3 2 2 1 1 2 1 1 1 1 2 2 2 2 2 1 1 0 1 1 2 2 2 2 2 2 2 1 1 1 2 2 2 0 2 2 2 2 2 3 3 4 4 5 5 6 5 5 6 7 7 7 8 8 9 9 9 10 12 11 8 9 10 9 9 9 9 13 16 14 14 18 21 20 20 18 16 15
2 2 1 1 1 2 3 4 4 2 1 3 3 2 1 1 1 0 1 2 2 1 1 1 1 1 1 2 2 2 1 1 1 1 1 1 1 2 2 2 1 1 2 2 2 3 3 4 4 4 4 5 5 5 5 6 6 8 8 8 8 8 7 7 8 8 9 10 7 5 6 7 7 7 6 7 13 18 18 17 19 21 21 20 18 16 15
2 1 1 1 2 3 4 4 3 1 1 1 3 2 1 0 0 1 3 3 1 0 1 1 1 1 2 2 1 1 1 1 1 1 1 1 2 2 1 0 2 2 2 2 3 3 3 3 4 4 5 5 5 5 5 6 7 8 9 10 10 9 8 8 9 10 10 9 5 3 4 5 8 8 4 4 10 15 17 19 22 23 21 20 18 16 15
3 2 1 2 4 5 5 5 4 1 0 1 1 1 1 0 0 1 3 2 1 0 2 1 1 1 2 1 1 0 1 1 1 1 2 2 2 1 1 3 3 2 2 3 3 3 3 3 4 4 4 5 5 5 6 7 7 8 10 11 11 9 7 7 8 9 9 8 7 9 9 9 11 11 9 9 13 14 14 17 22 22 20 19 18 16 14
2 2 3 4 5 6 6 5 3 1 0 1 1 1 1 1 1 1 3 2 1 2 2 2 1 2 2 1 1 0 1 0 1 3 2 1 2 2 2 3 3 2 3 3 3 3 3 3 3 3 3 4 5 5 6 8 9 10 11 12 10 7 5 6 7 8 7 6 7 8 8 9 13 15 14 15 17 16 14 15 19 20 18 18 17 15 14
2 2 3 4 6 7 7 5 2 0 1 1 1 1 1 1 1 2 3 3 1 1 3 3 2 2 1 0 0 0 0 1 3 4 1 1 2 2 3 4 3 3 4 4 3 3 3 3 3 2 3 4 5 6 8 9 11 12 12 12 10 7 5 6 7 6 3 3 5 8 8 11 17 20 18 16 14 12 11 13 17 18 18 17 16 14 14
Wind_Direction
349 350 351 353 354 353 355 358 0 0 359 358 359 352 300 256 298 295 315 159 219 227 210 264 273 102 351 314 33 343 340 353 354 8 16 21 34 16 80 100 78 102 103 77 46 355 20 43 346 349 51 56 38 15 2 358 354 14 10 323 341 343 297 357 331 308 306 299 277 198 213 262 277 281 237 231 236 148 140 172 206 308 82 108 96 90 103
349 350 351 352 353 353 354 358 1 3 5 1 357 347 304 306 282 273 180 166 221 266 233 286 37 104 272 51 114 97 30 360 345 354 6 23 36 7 27 79 85 122 130 123 120 100 20 42 358 354 1 24 48 25 8 7 5 34 32 311 331 335 322 2 336 321 332 319 308 156 203 280 314 306 291 277 273 248 86 65 83 70 80 128 114 117 134
349 351 351 352 353 352 353 358 0 2 4 2 357 325 292 305 270 253 187 183 199 250 324 332 35 62 28 39 96 128 101 42 342 335 346 5 6 359 30 73 178 146 126 122 123 151 149 68 26 357 315 298 70 36 355 10 25 8 326 296 290 297 299 309 358 355 338 317 309 266 291 313 311 301 285 270 280 351 59 73 65 57 330 61 112 142 151
349 352 351 352 353 352 353 356 358 0 0 357 349 279 284 321 282 290 253 210 191 83 329 359 49 19 48 41 336 335 116 100 59 340 341 9 344 346 36 297 159 73 344 133 130 162 148 111 322 290 278 270 92 43 330 23 33 326 314 301 288 282 293 287 115 105 272 252 253 262 284 317 312 296 283 278 357 42 52 85 91 137 154 9 105 146 142
350 352 351 353 354 353 354 356 357 359 358 354 346 268 258 298 290 330 11 310 343 47 10 33 56 2 26 66 306 333 53 86 81 20 6 41 334 344 28 321 330 75 334 33 116 188 145 137 222 243 277 294 102 115 280 20 1 318 324 349 351 1 326 313 103 200 253 267 290 306 332 339 337 325 298 292 67 85 73 92 126 153 117 45 106 138 135
351 353 352 354 355 355 357 358 357 358 356 351 345 249 263 311 308 349 26 307 346 47 2 9 57 28 21 17 300 6 35 43 67 29 18 55 1 335 64 328 354 86 71 59 59 309 106 102 293 334 8 343 53 139 202 68 10 333 353 43 43 14 308 322 324 281 258 265 286 300 326 335 333 342 334 328 17 102 69 72 115 126 122 129 133 123 123
351 353 352 354 357 357 358 2 2 359 357 353 348 250 334 343 331 344 356 338 357 36 324 323 80 57 25 11 2 34 53 51 61 26 12 54 9 330 50 26 16 54 83 89 65 24 62 52 343 5 4 350 21 14 124 62 29 5 7 25 54 84 308 327 328 318 314 302 290 297 330 334 324 335 348 359 25 45 30 34 89 99 111 126 117 99 92
351 354 353 353 358 360 360 5 7 4 5 7 19 48 18 357 341 337 338 335 348 4 316 288 114 101 138 71 10 30 63 58 63 32 13 36 6 347 63 57 25 36 61 79 77 65 106 165 168 356 333 341 29 13 18 18 3 14 17 346 28 56 327 322 340 351 331 300 273 267 316 311 310 327 336 353 18 24 20 54 95 103 103 101 100 96 89
351 355 354 353 358 1 2 7 11 11 16 18 16 28 17 348 332 336 317 310 339 337 294 292 86 62 40 52 13 36 63 51 64 44 15 16 20 20 55 72 52 49 53 56 55 38 42 115 95 330 317 342 77 77 39 15 346 359 19 348 347 7 320 317 356 18 298 296 284 208 254 287 298 328 328 329 15 14 356 48 96 113 120 108 103 109 120
351 354 354 353 357 2 4 8 12 15 23 26 9 1 10 354 337 345 334 292 318 286 259 355 76 78 44 49 32 50 59 38 42 57 20 27 27 16 27 40 35 70 64 44 25 359 351 3 1 339 317 312 303 139 228 255 315 357 22 8 320 344 346 337 356 323 273 310 316 280 222 285 292 331 341 336 343 108 346 5 80 120 133 133 129 139 145
351 354 355 354 356 1 4 8 11 13 20 24 9 333 6 3 330 332 348 309 310 300 301 55 63 145 148 93 63 67 69 54 45 42 65 82 46 14 33 37 16 59 64 25 344 322 317 319 321 313 291 288 303 326 275 255 94 60 12 321 298 352 30 345 334 315 299 324 318 298 122 57 314 358 8 356 5 75 50 31 57 104 118 110 103 115 125
350 354 355 355 355 360 3 6 10 11 13 15 5 330 1 4 336 303 349 331 308 314 28 72 35 359 66 81 73 65 67 63 53 57 59 51 30 25 41 40 24 48 64 331 294 292 277 255 252 276 281 304 338 318 294 339 94 109 285 348 350 8 30 323 298 287 322 337 337 345 103 102 7 31 19 1 12 67 72 59 58 85 100 94 89 97 107
351 352 354 356 354 357 1 3 7 10 9 8 5 354 4 10 9 318 345 343 301 319 12 84 76 55 49 57 76 78 77 63 39 46 66 54 42 53 47 41 35 10 343 325 325 318 301 280 256 323 317 16 5 297 289 312 120 196 76 54 13 7 33 329 290 246 358 347 338 278 265 325 39 37 15 3 10 46 69 70 65 79 97 99 99 109 116
349 351 353 356 356 355 358 360 3 8 8 7 8 10 12 16 19 341 338 353 300 314 352 64 77 68 46 34 64 108 108 85 36 9 48 17 57 76 64 51 36 351 338 41 14 338 316 304 39 15 294 321 80 289 306 351 325 314 48 64 34 23 46 27 325 260 228 300 248 213 339 354 20 32 21 30 33 35 69 90 85 79 95 107 113 119 119
346 349 351 354 357 356 356 357 359 4 8 8 14 22 15 12 13 353 317 328 303 313 6 47 50 69 70 21 343 295 112 108 159 153 78 346 27 77 65 44 37 0 332 42 5 303 288 280 250 206 211 184 129 142 343 323 212 182 119 72 73 106 123 98 52 323 318 342 315 346 95 79 341 2 32 39 43 45 65 89 77 71 101 116 125 136 137
342 346 349 353 357 358 357 355 354 359 3 5 16 27 16 8 8 357 313 286 304 313 18 45 11 20 78 33 321 328 50 59 358 144 119 321 81 106 94 53 44 4 321 356 18 310 312 293 258 237 185 123 118 121 349 333 195 153 139 124 59 175 144 92 89 300 326 346 303 318 126 231 282 18 42 33 26 23 50 75 50 12 88 108 126 142 133
336 343 348 351 354 359 360 354 350 356 1 360 360 6 10 6 5 358 324 291 314 295 349 36 357 334 26 64 334 350 98 44 10 346 145 120 87 116 107 96 80 22 4 13 338 280 276 246 255 320 31 46 85 111 30 338 323 164 142 137 192 261 251 67 232 259 287 298 289 358 89 260 293 42 43 24 8 14 58 99 262 320 28 51 72 110 103
331 340 348 350 351 358 2 356 349 350 357 357 350 350 6 9 5 4 346 309 328 306 336 359 2 348 355 341 348 20 358 1 25 314 200 157 181 178 124 141 151 86 34 356 297 285 279 249 205 102 59 8 47 94 83 337 293 241 164 145 215 251 198 174 206 241 250 245 254 220 156 254 29 51 31 8 7 32 85 155 233 314 45 43 43 73 98
328 336 347 350 349 354 1 358 351 346 352 359 353 352 9 7 4 11 14 343 353 315 313 330 353 7 342 334 333 354 329 348 39 341 303 294 310 333 24 49 55 76 151 297 321 302 297 302 348 107 116 351 71 100 123 175 286 300 49 83 251 254 212 186 193 229 253 234 219 65 23 326 70 77 38 15 39 90 160 205 248 35 71 61 46 45 60
325 334 347 350 347 352 358 356 351 347 349 356 353 351 5 12 9 17 23 11 337 295 302 342 5 357 346 352 355 349 1 57 22 313 327 357 349 342 349 4 1 11 161 78 338 282 302 324 337 40 89 163 90 79 146 206 263 258 204 328 257 215 85 237 194 199 227 221 208 126 182 314 76 90 48 23 76 169 196 221 353 34 72 78 64 46 33
321 330 344 349 347 351 355 353 350 345 345 354 350 344 357 19 14 7 2 349 316 269 311 346 346 335 330 342 347 340 335 342 1 357 2 36 58 24 47 199 274 288 101 64 305 303 44 326 314 5 8 12 98 116 177 186 260 236 194 181 304 41 83 314 295 325 250 189 230 236 203 74 66 89 113 82 120 171 162 111 37 22 51 71 76 64 38
317 324 339 347 349 351 353 351 349 341 335 345 345 331 337 349 353 353 347 328 274 250 280 300 304 299 297 308 319 322 321 336 19 39 11 338 342 136 169 189 240 285 46 63 344 9 24 344 338 13 349 307 35 30 202 178 250 235 148 125 312 347 128 171 248 325 357 155 185 232 226 93 86 97 118 113 106 95 94 103 94 56 53 54 62 61 35
310 316 333 345 349 351 351 350 348 338 327 337 344 330 333 343 349 352 345 319 265 263 273 276 276 273 268 264 256 269 324 329 349 29 42 2 316 290 238 122 337 334 51 61 51 31 26 359 349 356 317 310 2 346 313 281 267 285 135 174 209 183 133 160 204 344 12 108 154 179 175 126 114 116 119 120 119 94 75 82 81 67 70 73 71 65 45
303 306 327 342 347 349 350 349 345 332 315 324 337 337 347 1 3 357 346 326 296 309 288 271 264 269 279 235 170 211 262 260 256 312 56 60 325 315 341 23 25 39 57 61 64 56 32 330 320 328 316 346 12 337 298 300 7 19 5 233 213 151 98 142 172 55 37 82 163 172 170 148 133 131 126 114 109 101 87 81 74 68 71 74 71 71 66
298 304 322 336 343 349 350 344 339 327 307 309 323 321 333 3 4 356 344 314 320 339 308 299 285 273 297 8 135 231 241 199 191 196 188 195 200 233 298 329 85 97 90 84 74 63 37 271 293 292 285 351 26 357 316 329 39 32 16 359 345 355 1 359 318 248 216 171 44 18 175 155 134 128 138 138 128 119 109 104 103 94 83 75 66 63 67
289 298 317 332 340 346 346 339 334 325 303 296 303 301 304 354 1 356 345 319 305 274 247 286 322 322 324 336 3 26 42 108 238 262 246 223 209 218 260 311 77 85 78 86 65 40 8 309 339 302 282 2 20 359 334 282 5 8 357 28 57 350 331 345 338 299 281 328 11 6 360 66 95 102 143 158 149 142 137 132 128 119 110 104 89 68 59
281 290 311 330 337 340 341 336 330 324 303 293 295 297 302 9 25 1 344 328 308 275 260 291 326 341 336 331 327 323 313 284 303 299 280 265 246 227 232 229 118 118 118 155 141 128 161 279 294 294 349 17 353 315 299 276 41 348 281 277 67 76 287 338 5 322 287 299 351 12 23 7 20 33 56 94 111 129 145 150 148 142 139 137 127 105 77
272 285 308 324 331 335 337 333 327 323 306 292 287 284 292 40 42 351 338 358 346 304 334 311 291 308 319 316 307 302 297 338 344 300 268 253 245 222 201 43 82 151 174 183 156 131 88 349 320 344 25 44 256 294 328 333 282 227 244 261 74 111 175 93 62 27 265 313 346 15 54 237 348 10 8 14 45 68 116 169 168 159 153 152 149 150 153
268 284 304 318 327 333 333 328 324 319 300 296 299 290 300 70 48 345 348 36 12 313 300 285 274 288 310 310 305 304 299 243 248 282 274 255 245 206 150 117 60 20 48 78 57 27 42 119 98 59 89 138 182 308 344 297 255 247 212 83 66 44 27 84 90 103 132 105 3 4 360 339 351 3 2 6 9 359 344 312 242 167 160 161 162 164 167
267 284 301 312 324 330 329 324 318 305 292 325 337 306 203 113 72 356 19 68 13 335 322 292 294 329 323 310 299 298 299 289 237 326 354 33 28 12 28 57 49 30 33 83 108 104 173 150 103 64 227 181 178 271 280 242 260 270 94 95 90 21 359 48 76 96 154 152 73 357 337 331 331 332 345 10 320 297 296 320 347 349 175 176 175 168 165
264 279 298 311 322 325 319 309 297 273 250 40 23 326 226 158 27 341 346 4 353 342 313 275 281 291 298 312 343 346 339 339 342 359 24 49 54 35 26 25 24 39 52 33 31 60 170 172 147 192 261 209 140 274 273 251 267 280 86 100 120 170 50 13 356 356 359 38 18 325 292 271 282 298 317 333 307 289 292 325 5 359 345 255 180 170 172
264 281 301 312 316 313 299 287 276 249 219 201 288 274 248 121 342 330 327 316 305 307 283 276 290 279 257 345 360 360 355 345 306 220 42 38 37 42 53 53 48 135 122 101 51 18 206 190 169 166 170 97 104 265 266 235 254 273 37 103 147 171 105 49 354 351 355 16 29 342 299 295 321 326 294 319 334 336 321 304 303 353 346 339 186 166 168
268 289 304 307 307 298 276 266 267 249 234 244 257 233 179 110 30 354 336 202 256 275 270 266 277 275 318 357 337 358 1 345 330 53 49 38 49 51 68 72 53 73 121 126 147 245 245 169 127 117 94 89 111 253 259 241 254 299 19 50 32 3 358 7 21 10 4 26 57 64 268 286 318 329 278 288 305 307 303 302 290 234 343 356 8 90 138
274 294 303 303 297 280 261 261 254 241 252 271 239 176 149 55 27 57 160 181 253 264 258 261 270 270 311 301 286 11 9 344 349 78 40 195 134 110 96 80 50 342 188 160 184 241 346 28 80 103 103 202 155 240 260 261 342 32 46 49 20 334 316 326 43 37 12 33 114 208 237 247 260 268 266 268 270 270 279 287 278 181 143 118 79 351 118
281 298 302 299 286 262 254 254 244 244 269 272 169 149 106 1 13 144 155 156 256 255 218 206 253 278 319 266 246 32 18 326 258 147 123 97 60 47 98 105 130 232 189 159 181 184 135 115 132 132 121 143 191 233 267 338 45 59 70 77 290 286 296 325 5 356 340 325 283 264 259 260 263 263 264 260 243 228 257 264 222 151 138 136 143 190 195
290 296 292 291 293 281 268 254 240 235 247 209 148 128 346 358 65 156 170 190 250 261 271 258 239 222 196 262 281 11 8 282 254 206 145 133 85 170 157 188 236 196 146 183 212 193 154 145 165 153 150 177 207 226 87 79 85 88 81 49 13 347 334 337 342 339 333 327 318 315 319 312 297 280 264 260 236 195 213 251 199 139 143 145 111 85 105
294 285 264 355 359 294 258 239 216 195 187 328 333 314 308 4 128 178 202 210 215 218 241 300 268 201 187 243 265 40 17 271 238 210 164 168 214 181 159 191 235 165 161 226 222 172 142 172 219 196 182 189 209 351 59 74 80 74 49 17 22 24 358 340 341 340 336 333 334 344 355 348 325 304 285 280 259 213 206 221 174 150 159 160 137 98 60
291 266 205 13 321 274 231 193 162 124 30 357 343 301 235 194 189 208 202 185 180 182 199 253 250 181 169 289 230 146 143 250 247 226 210 273 233 184 158 178 265 262 230 234 159 108 119 178 197 178 132 59 35 23 22 35 49 58 249 247 110 117 272 320 344 355 347 334 329 334 333 321 308 296 292 299 294 264 254 89 112 123 130 136 130 113 92
285 156 217 250 256 271 30 83 107 70 13 325 257 230 209 199 212 217 171 154 165 178 192 225 230 176 165 219 232 185 177 244 268 241 217 236 242 216 176 197 211 271 259 250 129 115 200 216 164 127 73 22 59 89 130 200 207 223 233 233 210 198 210 276 352 94 161 280 282 274 264 266 272 277 279 279 100 86 60 73 99 106 107 113 120 117 113
186 233 250 239 158 96 64 50 82 136 240 237 220 217 231 211 208 208 163 168 192 194 181 206 232 202 184 211 249 206 182 205 268 287 257 236 211 196 258 238 161 210 263 263 149 182 242 238 102 101 250 263 133 132 188 250 235 231 244 283 324 334 344 336 315 275 203 233 266 269 253 243 246 259 256 197 145 137 127 122 127 125 119 119 122 120 117
262 269 283 323 346 4 85 48 247 217 231 250 227 215 241 221 202 214 241 216 214 215 185 199 232 220 199 208 226 186 174 196 273 290 268 259 137 175 258 271 140 218 260 246 154 208 242 199 95 110 144 40 40 32 336 314 300 287 288 297 309 317 319 310 301 297 286 246 247 268 268 266 269 261 230 184 159 152 142 133 134 133 127 123 120 114 109
302 302 303 310 310 291 219 214 230 223 230 284 303 277 270 249 207 203 261 262 271 259 196 217 262 259 186 197 201 178 178 216 265 265 245 229 141 166 249 258 175 234 261 232 195 218 221 95 93 112 130 295 304 294 265 257 267 278 290 297 301 303 300 290 287 292 291 283 262 249 257 274 285 258 182 165 158 147 138 137 139 134 127 118 109 105 103
280 290 291 289 280 248 212 215 208 184 191 24 52 338 288 270 281 358 7 237 275 266 186 223 277 254 168 197 265 47 108 147 209 271 260 227 166 193 243 248 238 240 245 235 230 235 81 88 97 117 182 224 247 251 254 264 275 287 297 302 304 302 298 292 289 289 291 290 285 259 238 249 268 206 144 150 164 160 150 151 151 140 127 117 110 108 108
274 262 263 262 245 174 110 216 159 107 3 296 182 229 247 229 271 327 309 190 243 250 198 205 258 249 172 148 211 117 107 123 190 246 235 218 242 256 251 252 226 206 218 236 224 107 88 83 96 145 198 223 234 240 255 277 295 304 306 309 309 305 301 297 295 294 294 293 284 253 221 218 226 207 167 167 184 189 173 166 159 144 128 118 112 109 109
290 214 195 274 310 32 61 335 253 193 234 222 218 240 251 198 182 224 222 194 224 258 214 210 251 262 199 122 152 193 136 110 176 212 206 202 245 244 244 254 244 219 230 260 22 93 95 88 122 165 188 235 318 320 317 327 330 322 313 308 304 300 297 293 290 288 286 287 284 264 229 213 214 214 196 182 188 198 189 163 147 134 122 115 112 110 110
277 233 163 167 290 264 206 265 254 230 222 220 222 268 319 27 143 175 202 190 184 213 221 229 259 278 256 163 190 192 165 163 192 203 192 197 229 233 212 222 245 247 242 272 63 86 109 127 115 92 63 36 19 360 348 345 333 320 312 301 290 287 283 280 278 272 265 269 275 264 231 216 214 216 213 193 179 181 175 144 130 126 121 117 116 117 115
263 262 226 177 239 234 210 217 231 237 270 327 4 48 39 39 96 135 214 235 222 212 206 207 230 283 272 241 253 227 186 177 198 200 182 187 230 246 220 220 238 256 41 76 76 78 88 87 66 46 31 24 11 349 336 329 320 313 308 297 288 288 286 280 278 275 270 271 271 252 229 220 209 207 216 200 170 163 160 144 132 128 125 122 122 125 124
273 291 278 223 213 231 229 235 241 240 336 344 340 359 57 62 96 159 245 250 242 242 241 219 237 241 208 207 239 253 218 184 202 210 194 194 217 223 233 246 265 44 51 55 61 61 60 59 53 37 17 5 357 340 325 319 316 313 312 307 301 298 296 293 294 291 285 282 284 274 249 226 193 185 212 198 161 154 154 146 134 129 128 128 131 135 137
260 284 267 233 256 268 263 269 281 282 125 291 295 297 307 356 55 266 270 267 266 348 300 271 276 282 246 200 190 250 263 240 218 214 217 235 236 231 232 48 65 67 58 54 57 57 57 54 45 31 13 356 342 330 322 323 321 319 317 314 307 301 297 298 301 304 301 291 276 256 242 212 179 172 190 178 151 149 150 142 134 132 135 139 141 143 145
261 254 231 241 264 274 275 277 285 290 145 242 276 283 289 277 130 255 270 265 136 51 289 270 197 264 272 251 168 239 259 240 237 248 246 256 270 288 54 78 82 82 72 67 64 60 55 48 37 21 360 345 338 335 333 332 329 324 319 313 307 302 300 298 296 301 304 289 243 212 200 182 162 156 160 161 157 155 151 141 136 137 141 144 146 149 152
262 244 237 241 247 257 269 284 295 308 337 305 308 306 257 217 187 239 278 276 172 190 259 265 222 227 245 214 117 313 314 12 249 245 237 281 347 8 62 84 89 93 90 82 78 78 68 52 38 14 350 344 344 343 341 339 334 328 324 320 314 306 296 290 287 287 289 276 242 213 190 163 150 149 151 152 154 155 151 142 139 141 143 146 150 152 151
241 253 260 256 250 252 259 267 276 230 209 246 274 291 286 270 195 204 254 274 249 214 253 268 258 246 260 58 69 271 249 244 255 253 224 76 30 39 90 99 95 98 99 92 83 76 67 56 50 31 1 352 355 358 355 348 341 337 337 335 330 321 308 306 308 315 322 278 229 205 177 155 152 156 157 153 150 150 145 142 143 144 145 148 152 151 146